When you browse on this site, cookies collect data to enhance your experience and personalize the content and advertising you see.
Visit our Privacy Policy to learn more. By continuing to use the site, you agree to this use of cookies and data.
  • In United Kingdom
  • List of Countries
  • For 7 days
  • Water Temperature
  • Weather Map
  • Weather Widgets
  • user-avatar
    Login

    Hourly Weather Hannover

    Today, 21 August, Wednesday

    Time Temperature Precipitation Wind Pressure Humidity
    00:00 +15°C° 0 mm 2 mps 763 mmHg 79%
    01:00 +14°C° 0 mm 2 mps 764 mmHg 82%
    02:00 +14°C° 0 mm 2 mps 764 mmHg 84%
    03:00 +13°C° 0 mm 2 mps 764 mmHg 87%
    04:00 +13°C° 0 mm 2 mps 764 mmHg 89%
    05:00 +13°C° 0 mm 2 mps 764 mmHg 86%
    06:00 +14°C° 0 mm 1 mps 765 mmHg 84%
    07:00 +14°C° 0 mm 1 mps 765 mmHg 81%
    08:00 +16°C° 0 mm 2 mps 765 mmHg 73%
    09:00 +18°C° 0 mm 2 mps 765 mmHg 64%
    10:00 +19°C° 0 mm 2 mps 766 mmHg 56%
    11:00 +20°C° 0 mm 2 mps 765 mmHg 51%
    12:00 +21°C° 0 mm 2 mps 765 mmHg 47%
    13:00 +23°C° 0 mm 2 mps 765 mmHg 42%
    14:00 +23°C° 0 mm 2 mps 765 mmHg 42%
    15:00 +23°C° 0 mm 2 mps 765 mmHg 41%
    16:00 +23°C° 0 mm 1 mps 765 mmHg 40%
    17:00 +22°C° 0 mm 1 mps 765 mmHg 46%
    18:00 +21°C° 0 mm 1 mps 765 mmHg 52%
    19:00 +20°C° 0 mm 1 mps 765 mmHg 57%
    20:00 +19°C° 0 mm 1 mps 765 mmHg 59%
    21:00 +18°C° 0 mm 1 mps 765 mmHg 61%
    22:00 +16°C° 0 mm 1 mps 765 mmHg 63%
    23:00 +15°C° 0 mm 1 mps 765 mmHg 64%

    Tomorrow, 22 August, Thursday

    Time Temperature Precipitation Wind Pressure Humidity
    00:00 +15°C° 0 mm 1 mps 765 mmHg 66%
    01:00 +14°C° 0 mm 1 mps 765 mmHg 67%
    02:00 +14°C° 0 mm 1 mps 765 mmHg 67%
    03:00 +14°C° 0 mm 1 mps 764 mmHg 68%
    04:00 +14°C° 0 mm 2 mps 764 mmHg 68%
    05:00 +14°C° 0 mm 2 mps 764 mmHg 68%
    06:00 +15°C° 0 mm 2 mps 764 mmHg 68%
    07:00 +16°C° 0 mm 2 mps 764 mmHg 67%
    08:00 +18°C° 0 mm 2 mps 764 mmHg 61%
    09:00 +20°C° 0 mm 3 mps 764 mmHg 54%
    10:00 +24°C° 0 mm 3 mps 764 mmHg 48%
    11:00 +25°C° 0 mm 3 mps 764 mmHg 44%
    12:00 +26°C° 0 mm 3 mps 763 mmHg 41%
    13:00 +27°C° 0 mm 3 mps 763 mmHg 37%
    14:00 +27°C° 0 mm 2 mps 763 mmHg 37%
    15:00 +27°C° 0 mm 2 mps 763 mmHg 36%
    16:00 +27°C° 0 mm 2 mps 763 mmHg 35%
    17:00 +26°C° 0 mm 1 mps 763 mmHg 41%
    18:00 +24°C° 0 mm 1 mps 763 mmHg 47%
    19:00 +23°C° 0 mm 1 mps 763 mmHg 53%
    20:00 +21°C° 0 mm 1 mps 763 mmHg 57%
    21:00 +20°C° 0 mm 1 mps 763 mmHg 61%
    22:00 +19°C° 0 mm 1 mps 764 mmHg 66%
    23:00 +18°C° 0 mm 1 mps 764 mmHg 68%

    Day after tomorrow, 23 August, Friday

    Time Temperature Precipitation Wind Pressure Humidity
    00:00 +18°C° 0 mm 1 mps 764 mmHg 71%
    01:00 +15°C° 0 mm 0 mps 764 mmHg 73%
    02:00 +15°C° 0 mm 0 mps 763 mmHg 74%
    03:00 +15°C° 0 mm 0 mps 763 mmHg 75%
    04:00 +14°C° 0 mm 0 mps 763 mmHg 76%
    05:00 +15°C° 0 mm 0 mps 763 mmHg 73%
    06:00 +16°C° 0 mm 0 mps 763 mmHg 70%
    07:00 +17°C° 0 mm 0 mps 763 mmHg 67%
    08:00 +21°C° 0 mm 1 mps 764 mmHg 60%
    09:00 +23°C° 0 mm 1 mps 764 mmHg 53%
    10:00 +25°C° 0 mm 1 mps 764 mmHg 46%
    11:00 +26°C° 0 mm 1 mps 764 mmHg 42%
    12:00 +27°C° 0 mm 1 mps 763 mmHg 39%
    13:00 +28°C° 0 mm 1 mps 763 mmHg 36%
    14:00 +28°C° 0 mm 1 mps 763 mmHg 35%
    15:00 +29°C° 0 mm 2 mps 762 mmHg 35%
    16:00 +29°C° 0 mm 2 mps 762 mmHg 34%
    17:00 +27°C° 0 mm 2 mps 762 mmHg 41%
    18:00 +25°C° 0 mm 2 mps 762 mmHg 47%
    19:00 +24°C° 0 mm 2 mps 762 mmHg 54%
    20:00 +21°C° 0 mm 2 mps 762 mmHg 58%
    21:00 +20°C° 0 mm 2 mps 762 mmHg 61%
    22:00 +20°C° 0 mm 1 mps 763 mmHg 65%
    23:00 +19°C° 0 mm 1 mps 762 mmHg 67%

    24 August, Saturday

    Time Temperature Precipitation Wind Pressure Humidity
    00:00 +19°C° 0 mm 1 mps 762 mmHg 69%
    01:00 +18°C° 0 mm 1 mps 762 mmHg 70%
    02:00 +18°C° 0 mm 1 mps 762 mmHg 70%
    03:00 +18°C° 0 mm 1 mps 762 mmHg 70%
    04:00 +16°C° 0 mm 1 mps 762 mmHg 70%
    05:00 +18°C° 0 mm 1 mps 762 mmHg 69%
    06:00 +19°C° 0 mm 1 mps 761 mmHg 68%
    07:00 +19°C° 0 mm 1 mps 761 mmHg 67%
    08:00 +20°C° 0 mm 2 mps 761 mmHg 63%
    09:00 +23°C° 0 mm 2 mps 761 mmHg 59%
    10:00 +25°C° 0 mm 3 mps 761 mmHg 54%
    11:00 +26°C° 0 mm 3 mps 761 mmHg 51%
    12:00 +27°C° 0 mm 3 mps 761 mmHg 48%
    13:00 +28°C° 0 mm 3 mps 761 mmHg 45%
    14:00 +28°C° 0 mm 3 mps 760 mmHg 44%
    15:00 +28°C° 0 mm 3 mps 760 mmHg 44%
    16:00 +29°C° 0 mm 3 mps 759 mmHg 43%
    17:00 +27°C° 0 mm 3 mps 759 mmHg 49%
    18:00 +26°C° 0 mm 3 mps 759 mmHg 54%
    19:00 +24°C° 0 mm 2 mps 759 mmHg 59%
    20:00 +23°C° 0 mm 2 mps 759 mmHg 63%
    21:00 +21°C° 0 mm 2 mps 760 mmHg 66%
    22:00 +20°C° 0 mm 2 mps 760 mmHg 70%
    23:00 +20°C° 0 mm 2 mps 760 mmHg 73%

    25 August, Sunday

    Time Temperature Precipitation Wind Pressure Humidity
    00:00 +19°C° 0 mm 2 mps 759 mmHg 76%
    01:00 +19°C° 0 mm 2 mps 759 mmHg 78%
    02:00 +18°C° 0 mm 2 mps 759 mmHg 80%
    03:00 +18°C° 0 mm 2 mps 759 mmHg 81%
    04:00 +17°C° 0 mm 2 mps 759 mmHg 82%
    05:00 +18°C° 0 mm 2 mps 759 mmHg 80%
    06:00 +18°C° 0 mm 2 mps 759 mmHg 79%
    07:00 +19°C° 0 mm 2 mps 759 mmHg 77%
    08:00 +21°C° 0 mm 2 mps 759 mmHg 70%
    09:00 +24°C° 0 mm 2 mps 759 mmHg 63%
    10:00 +26°C° 0 mm 2 mps 759 mmHg 56%
    11:00 +27°C° 0 mm 2 mps 758 mmHg 52%
    12:00 +29°C° 0 mm 2 mps 758 mmHg 47%
    13:00 +30°C° 0 mm 2 mps 758 mmHg 43%
    14:00 +30°C° 0 mm 1 mps 758 mmHg 42%
    15:00 +30°C° 0 mm 1 mps 758 mmHg 40%
    16:00 +31°C° 0 mm 1 mps 757 mmHg 39%
    17:00 +29°C° 0 mm 1 mps 757 mmHg 44%
    18:00 +27°C° 0 mm 1 mps 757 mmHg 48%
    19:00 +26°C° 0 mm 2 mps 757 mmHg 53%
    20:00 +25°C° 0 mm 1 mps 757 mmHg 55%
    21:00 +24°C° 0 mm 1 mps 758 mmHg 57%
    22:00 +23°C° 0 mm 1 mps 758 mmHg 59%
    23:00 +23°C° 0 mm 1 mps 758 mmHg 62%

    26 August, Monday

    Time Temperature Precipitation Wind Pressure Humidity
    00:00 +22°C° 0 mm 1 mps 758 mmHg 64%
    01:00 +22°C° 0 mm 1 mps 758 mmHg 67%
    02:00 +22°C° 0 mm 1 mps 758 mmHg 70%
    03:00 +21°C° 0 mm 1 mps 758 mmHg 72%
    04:00 +21°C° 0 mm 1 mps 757 mmHg 75%
    05:00 +22°C° 0 mm 1 mps 758 mmHg 74%
    06:00 +22°C° 0 mm 1 mps 758 mmHg 73%
    07:00 +23°C° 0 mm 1 mps 758 mmHg 73%
    08:00 +25°C° 0 mm 1 mps 758 mmHg 65%
    09:00 +27°C° 0 mm 2 mps 758 mmHg 58%
    10:00 +29°C° 0 mm 2 mps 758 mmHg 51%
    11:00 +30°C° 0 mm 2 mps 758 mmHg 46%
    12:00 +31°C° 0 mm 2 mps 758 mmHg 41%
    13:00 +33°C° 0 mm 3 mps 758 mmHg 36%
    14:00 +34°C° 0 mm 3 mps 758 mmHg 36%
    15:00 +34°C° 0 mm 3 mps 758 mmHg 36%
    16:00 +34°C° 0 mm 3 mps 757 mmHg 35%
    17:00 +31°C° 0 mm 3 mps 757 mmHg 42%
    18:00 +29°C° 0 mm 3 mps 758 mmHg 48%
    19:00 +27°C° 0 mm 3 mps 758 mmHg 54%
    20:00 +25°C° 0.3 mm 2 mps 758 mmHg 60%
    21:00 +24°C° 0.3 mm 2 mps 759 mmHg 67%
    22:00 +22°C° 0.3 mm 1 mps 759 mmHg 73%
    23:00 +21°C° 0.1 mm 1 mps 759 mmHg 76%
    Show more